This is the latest recevied weather packets stored in our database for station/object WA1RYQ. If no packets are shown the sender has not sent any weather packets the latest 10 day(s).
| Time | Temp. | Humidity | Pressure | Rain* | Wind** | Luminosity | Snow |
|---|---|---|---|---|---|---|---|
| 1777690251 | 23.89° C | 84% | 1011.8 hPa | 0 mm | - | 0 W/m² | - |
| 1777688454 | 23.89° C | 85% | 1011.9 hPa | 0 mm | - | 0 W/m² | - |
| 1777686933 | 24.44° C | 85% | 1011.7 hPa | 0 mm | - | 0 W/m² | - |
| 1777684853 | 24.44° C | 85% | 1011.9 hPa | 0 mm | - | 0 W/m² | - |
| 1777684236 | 24.44° C | 85% | 1011.7 hPa | 0 mm | - | 0 W/m² | - |
| 1777683045 | 24.44° C | 84% | 1011.3 hPa | 0 mm | - | 0 W/m² | - |
| 1777682761 | 24.44° C | 84% | 1011.4 hPa | 0 mm | - | 0 W/m² | - |
| 1777682701 | 24.44° C | 84% | 1011.4 hPa | 0 mm | - | 0 W/m² | - |
| 1777680329 | 25° C | 83% | 1011.1 hPa | 0 mm | - | 0 W/m² | - |
| 1777677925 | 25.56° C | 81% | 1010.9 hPa | 0 mm | - | 32 W/m² | - |
| 1777677384 | 26.11° C | 81% | 1010.9 hPa | 0 mm | - | 42 W/m² | - |
| 1777675836 | 26.11° C | 79% | 1010.6 hPa | 0 mm | - | 69 W/m² | - |
| 1777675555 | 26.11° C | 79% | 1010.5 hPa | 0 mm | - | 63 W/m² | - |
| 1777673149 | 26.67° C | 78% | 1010.4 hPa | 0 mm | - | 113 W/m² | - |
| 1777672535 | 26.67° C | 78% | 1010.4 hPa | 0 mm | - | 142 W/m² | - |
| 1777671353 | 27.22° C | 77% | 1010.5 hPa | 0 mm | - | 123 W/m² | - |
| 1777670407 | 27.22° C | 78% | 1010.3 hPa | 0 mm | - | 90 W/m² | - |
| 1777670133 | 27.22° C | 78% | 1010.4 hPa | 0 mm | - | 499 W/m² | - |
| 1777669508 | 27.78° C | 76% | 1010.4 hPa | 0 mm | - | 265 W/m² | - |
| 1777668609 | 27.78° C | 76% | 1010.6 hPa | 0 mm | - | 292 W/m² | - |
| 1777665902 | 27.22° C | 77% | 1011 hPa | 0 mm | - | 436 W/m² | - |
| 1777665621 | 27.22° C | 76% | 1010.9 hPa | 0 mm | - | 292 W/m² | - |
| 1777664735 | 27.78° C | 75% | 1011.2 hPa | 0 mm | - | 715 W/m² | - |
| 1777663559 | 28.89° C | 74% | 1011.8 hPa | 0 mm | - | 847 W/m² | - |
| 1777659940 | 28.33° C | 74% | 1012.8 hPa | 0 mm | - | 923 W/m² | - |
* Rain latest hour (hover to see other rain measurements)
** Current wind speed in m/s (hover to see current wind gust speed)